RH
17 20 21 24 23 21 20 17 18 16 15 14 18 21 23 26 31 31 22 19 18 19 23 27 30 25 24 26 28 36 41 41 46 40 44 44 44 39 39 45 38 55 55 45
16 16 16 18 24 26 23 21 19 17 17 19 18 18 18 20 22 25 27 29 36 42 44 44 41 40 37 36 36 35 37 41 50 43 43 46 53 56 51 51 56 64 59 52
18 16 16 18 20 21 24 28 27 20 18 19 20 19 18 19 20 23 24 24 24 26 27 28 29 32 35 35 35 37 38 41 43 50 44 46 47 49 54 51 61 56 51 43
25 25 22 20 20 24 25 26 27 26 26 21 21 22 24 24 24 25 23 22 21 23 27 27 29 28 32 32 33 36 37 39 42 43 45 45 45 44 49 55 51 52 45 48
26 27 29 28 26 25 26 28 27 26 26 26 26 24 24 25 26 27 28 27 25 24 23 23 27 25 27 26 30 33 36 39 41 43 41 43 45 45 44 44 47 48 46 44
22 28 29 30 33 32 30 29 28 26 26 27 29 28 25 25 24 24 24 27 27 27 26 25 28 28 27 26 30 34 38 42 46 47 41 43 39 37 38 40 41 44 50 41
25 27 31 33 34 34 37 35 32 29 25 28 27 28 28 28 27 27 25 26 26 27 28 29 32 33 33 33 35 36 42 45 50 53 47 48 28 31 32 36 37 42 41 42
34 32 35 38 40 39 38 39 36 32 30 28 27 28 30 30 30 31 31 26 26 30 29 32 36 40 36 37 40 45 47 52 55 62 63 45 29 34 36 41 37 42 45 47
40 40 35 41 42 44 43 43 42 39 36 31 30 30 32 35 35 36 34 33 34 35 36 39 41 38 37 46 46 46 49 52 57 64 67 60 34 35 41 46 53 47 48 50
49 51 51 51 51 52 49 47 46 45 42 37 37 36 36 37 39 40 38 38 39 40 46 52 52 46 42 47 50 55 55 60 61 67 72 60 45 46 48 55 53 53 55 54
60 59 62 62 61 54 52 51 50 50 44 38 36 36 39 42 41 44 41 43 43 47 52 55 52 54 46 46 45 51 52 59 64 67 74 69 49 53 57 55 57 59 60 63
76 72 67 68 67 67 62 60 61 60 60 50 44 40 39 41 46 45 46 45 44 45 48 49 51 57 59 54 57 50 53 45 54 56 52 49 51 53 58 59 61 62 64 66
81 78 79 76 73 72 71 68 66 62 60 52 49 47 45 43 42 47 51 49 52 54 51 51 54 58 59 60 55 49 47 49 52 52 46 53 57 59 63 64 65 67 68 67
90 87 85 86 86 84 81 80 75 73 71 66 55 54 52 50 49 51 54 54 56 60 60 60 63 62 59 60 54 54 53 56 53 55 57 64 62 64 64 65 67 68 67 66
93 91 92 91 90 92 92 90 92 93 91 78 69 61 56 58 63 61 61 62 64 67 72 73 71 67 70 67 69 62 60 58 62 62 70 72 63 65 67 69 70 68 64 62
95 93 93 93 94 93 93 93 91 93 97 95 83 73 68 68 65 62 61 64 71 74 74 75 72 72 76 78 70 58 60 67 74 74 76 75 73 73 73 70 68 66 65 62
87 88 87 86 90 93 95 96 95 96 99 98 91 77 69 71 76 77 76 76 79 80 83 79 79 83 88 85 73 74 77 80 81 82 80 71 73 71 72 71 69 67 65 65
65 67 70 73 75 74 75 86 93 97 99 98 96 80 72 70 75 80 80 85 87 89 90 86 89 94 96 93 77 78 80 79 80 79 79 76 76 75 71 67 65 68 68 68
58 61 62 60 62 63 63 65 69 77 92 97 94 85 79 82 81 83 88 95 95 94 92 92 99 98 94 81 85 84 87 85 85 83 81 76 73 71 70 67 66 58 55 55
63 61 60 59 59 64 66 68 70 72 74 83 84 83 89 89 94 94 97 98 98 98 91 97 99 96 83 88 88 86 83 81 83 81 79 75 70 61 56 56 55 56 55 52
64 68 67 68 68 66 69 70 68 71 69 68 64 70 82 88 92 95 98 98 98 97 89 97 98 86 77 81 80 80 80 78 76 72 67 65 60 56 54 55 55 55 51 51
68 76 77 74 73 76 77 78 78 77 77 79 76 76 80 83 91 98 98 98 98 97 96 99 97 83 85 85 86 89 91 87 80 72 69 71 66 61 53 50 49 48 51 53
69 77 82 81 78 80 81 78 78 83 89 94 95 94 94 92 94 99 98 98 98 98 98 97 95 95 96 95 91 88 83 83 77 72 65 62 58 56 59 53 48 51 54 54
77 76 83 89 88 83 70 67 68 68 74 80 78 85 96 96 98 98 98 98 98 98 97 98 97 96 94 87 81 78 74 72 67 64 59 53 49 49 52 58 56 58 55 45
75 84 85 87 75 75 73 76 73 66 72 75 76 78 81 94 96 96 95 87 94 96 96 90 83 77 77 75 71 71 69 60 56 50 46 44 42 37 32 32 34 32 28 28
77 78 83 96 97 87 86 86 81 81 85 86 89 94 94 87 91 90 84 85 80 60 60 56 57 58 58 57 60 61 53 47 42 40 38 35 31 29 27 25 24 25 28 31
77 75 74 85 85 83 85 94 90 86 88 91 95 98 91 88 88 79 71 66 53 47 50 49 48 45 41 41 41 40 39 38 35 34 32 31 29 30 30 29 27 30 31 34